Concordia, KS

7:04 AM CST on November 12, 2019 (GMT -0600)
Blosser Municipal

Weather History for KCNK - September, 2019

Change the Weather History Date:

Sunday, September 22, 2019

  Actual Average Record
Temperature  
Mean Temperature 70 °F 65 °F  
Max Temperature 79 °F 77 °F 98 °F (1937)
Min Temperature 60 °F 53 °F 29 °F (1995)
Degree Days  
Heating Degree Days 0 3  
Month to date heating degree days 0 34  
Since 1 July heating degree days 0 37  
Cooling Degree Days 5 3  
Month to date cooling degree days 304 138  
Year to date cooling degree days 1581 1304  
Growing Degree Days 20 (Base 50)    
Moisture  
Dew Point 59 °F    
Average Humidity 71    
Maximum Humidity 100    
Minimum Humidity 42    
Precipitation  
Precipitation 0.47 in 0.10 in 1.22 in (1908)
Month to date precipitation 1.92 2.17  
Year to date precipitation 30.76 23.27  
Snow  
Snow 0.00 in 0.00 in T in (1908)
Month to date snowfall 0.0 0.0  
Year to date snowfall 32.3 13.7  
Since 1 July snowfall 0.0 0.0  
Snow Depth 0.00 in    
Sea Level Pressure  
Sea Level Pressure 29.90 in    
Wind  
Wind Speed 9 mph (NNW)    
Max Wind Speed 24 mph    
Max Gust Speed 33 mph    
Visibility 8 miles    
Events Rain    
T = Trace of Precipitation, MM = Missing Value Source: NWS Daily Summary

Daily Weather History Graph

Daily Weather History Graph

Search for Another Location

Airport or City:

Astronomy

Sep. 22, 2019 Rise Set
Actual Time 7:18 AM CDT 7:27 PM CDT
Civil Twilight 6:51 AM CDT 7:54 PM CDT
Nautical Twilight 6:19 AM CDT 8:26 PM CDT
Astronomical Twilight 5:47 AM CDT 8:58 PM CDT
Moon 12:10 AM CDT (9/22) 3:23 PM CDT (9/22)
Length of Visible Light 13h 03m
Length of Day
12h 09m
Last Quarter, 44% of the Moon is Illuminated
Sep 22
Last Quarter
Sep 28
New
Oct 5
First Quarter
Oct 13
Full
Oct 21
Last Quarter

Hourly Weather History & Observations

Time (CDT) Temp. Dew Point Humidity Pressure Visibility Wind Dir Wind Speed Gust Speed Precip Events Conditions
12:13 AM 69.1 °F 66.9 °F 93% 29.90 in 10.0 mi West 10.4 mph - 0.00 in   Overcast
12:20 AM 69.1 °F 66.9 °F 93% 29.89 in 10.0 mi NW 4.6 mph 19.6 mph 0.00 in Rain Light Rain
12:55 AM 69.1 °F 66.9 °F 93% 29.80 in 10.0 mi SSE 13.8 mph 21.9 mph 0.00 in   Overcast
1:55 AM 68.0 °F 66.0 °F 93% 29.82 in 10.0 mi North 8.1 mph - 0.00 in   Overcast
2:35 AM 68.0 °F 66.9 °F 96% 29.88 in 9.0 mi North 8.1 mph - 0.01 in Rain Light Rain
2:55 AM 68.0 °F 66.0 °F 93% 29.82 in 10.0 mi ENE 5.8 mph - 0.01 in   Overcast
3:55 AM 66.9 °F 66.0 °F 97% 29.79 in 10.0 mi ESE 5.8 mph - N/A   Clear
4:21 AM 66.9 °F 64.9 °F 93% 29.83 in 10.0 mi SE 9.2 mph - N/A   Partly Cloudy
4:55 AM 66.9 °F 64.9 °F 93% 29.78 in 10.0 mi ESE 8.1 mph - N/A   Overcast
5:33 AM 66.9 °F 64.9 °F 93% 29.83 in 10.0 mi SE 9.2 mph - N/A   Overcast
5:41 AM 66.9 °F 64.9 °F 93% 29.82 in 10.0 mi SE 10.4 mph - N/A   Mostly Cloudy
5:55 AM 66.9 °F 64.9 °F 93% 29.77 in 10.0 mi ESE 9.2 mph - N/A   Mostly Cloudy
6:05 AM 66.9 °F 64.9 °F 93% 29.85 in 1.5 mi NW 20.7 mph 31.1 mph 0.01 in Rain Light Rain
6:15 AM 66.9 °F 64.9 °F 93% 29.85 in 1.0 mi NNW 12.7 mph - 0.44 in Rain Heavy Rain
6:18 AM 66.9 °F 64.9 °F 93% 29.85 in 1.8 mi NNW 13.8 mph - 0.46 in Rain Rain
6:21 AM 66.0 °F 64.9 °F 96% 29.86 in 3.0 mi NW 23.0 mph 33.4 mph 0.46 in Rain Light Rain
6:34 AM 63.0 °F 61.0 °F 93% 29.87 in 10.0 mi NNW 23.0 mph 33.4 mph 0.46 in   Overcast
6:55 AM 63.0 °F 60.1 °F 90% 29.82 in 10.0 mi North 19.6 mph 28.8 mph 0.46 in   Overcast
7:25 AM 62.1 °F 59.0 °F 90% 29.90 in 10.0 mi NNW 11.5 mph 26.5 mph N/A   Overcast
7:55 AM 61.0 °F 57.0 °F 87% 29.88 in 10.0 mi North 11.5 mph 23.0 mph N/A   Overcast
8:55 AM 60.1 °F 55.9 °F 86% 29.92 in 10.0 mi North 11.5 mph 19.6 mph N/A   Overcast
9:41 AM 62.1 °F 57.0 °F 84% 29.94 in 10.0 mi NNE 16.1 mph 25.3 mph N/A   Overcast
9:55 AM 64.0 °F 57.9 °F 80% 29.92 in 10.0 mi North 12.7 mph 23.0 mph N/A   Scattered Clouds
10:55 AM 68.0 °F 57.0 °F 68% 29.92 in 10.0 mi North 17.3 mph 25.3 mph N/A   Partly Cloudy
11:55 AM 71.1 °F 55.9 °F 59% 29.92 in 10.0 mi NNE 11.5 mph 20.7 mph N/A   Clear
12:55 PM 73.0 °F 55.9 °F 55% 29.92 in 10.0 mi North 12.7 mph 19.6 mph N/A   Clear
1:55 PM 73.9 °F 57.0 °F 55% 29.92 in 10.0 mi North 10.4 mph - N/A   Partly Cloudy
2:55 PM 75.9 °F 54.0 °F 46% 29.92 in 10.0 mi NNW 9.2 mph - N/A   Clear
3:55 PM 78.1 °F 54.0 °F 43% 29.91 in 10.0 mi NNW 6.9 mph - N/A   Clear
4:55 PM 79.0 °F 53.1 °F 40% 29.92 in 10.0 mi NW 9.2 mph - N/A   Clear
5:55 PM 77.0 °F 53.1 °F 43% 29.93 in 5.0 mi WNW 9.2 mph - N/A   Haze
6:55 PM 75.0 °F 55.0 °F 50% 29.94 in 3.0 mi West 4.6 mph - N/A   Haze
6:59 PM 73.9 °F 55.0 °F 52% 29.97 in 1.8 mi WNW 4.6 mph - N/A   Haze
7:07 PM 73.9 °F 55.0 °F 52% 29.97 in 1.5 mi WNW 3.5 mph - N/A   Haze
7:17 PM 73.0 °F 54.0 °F 51% 29.97 in 0.8 mi Calm Calm - N/A   Haze
7:53 PM 71.6 °F 53.6 °F 53% 29.99 in 1.0 mi West 3.5 mph - N/A   Haze
7:55 PM 70.0 °F 55.0 °F 59% 29.96 in 1.0 mi West 3.5 mph - N/A   Haze
8:25 PM 66.0 °F 55.9 °F 70% 30.00 in - West 3.5 mph - N/A   Clear
8:55 PM 66.9 °F 54.0 °F 63% 29.99 in - WSW 4.6 mph - N/A   Clear
9:55 PM 62.1 °F 54.0 °F 75% 30.01 in - SW 4.6 mph - N/A   Clear
10:55 PM 62.1 °F 54.0 °F 75% 30.02 in - SSW 4.6 mph - N/A   Clear
11:55 PM 64.9 °F 54.0 °F 68% 30.01 in - South 10.4 mph - N/A   Clear